Date,TemperatureHighF,TemperatureAvgF,TemperatureLowF,DewpointHighF,DewpointAvgF,DewpointLowF,HumidityHigh,HumidityAvg,HumidityLow,PressureMaxIn,PressureMinIn,WindSpeedMaxMPH,WindSpeedAvgMPH,GustSpeedMaxMPH,PrecipitationSumIn
2013-8-1,77.3,68.3,60.1,61.7,57.2,51.6,97,70,43,29.88,29.81,14,2,18,0.01
2013-8-2,79.5,69.8,61.5,67.1,59.8,54.3,97,73,47,29.84,29.74,13,2,16,0.33
2013-8-3,77.5,67.6,55.7,57.9,54.3,50.5,89,65,43,30.02,29.83,15,1,15,0.00
2013-8-4,73.3,64.1,56.8,60.1,56.1,53.6,97,76,55,30.12,30.01,11,0,12,0.00
2013-8-5,72.0,64.3,56.3,62.3,58.3,53.4,92,81,66,30.04,29.77,14,2,14,0.02
2013-8-6,81.6,72.3,63.1,70.2,66.3,61.6,97,82,63,29.78,29.68,14,3,14,0.01
2013-8-7,83.5,74.1,63.9,71.7,66.4,60.3,96,78,49,29.86,29.65,13,2,13,0.00
2013-8-8,77.3,67.8,59.9,61.8,53.2,44.1,97,64,33,29.95,29.85,9,0,9,0.00
2013-8-9,78.6,68.9,55.7,65.0,57.4,46.1,87,67,56,29.95,29.87,12,2,12,0.00
2013-8-10,76.8,66.4,55.3,61.2,57.0,53.3,95,73,49,30.04,29.94,8,0,9,0.00
2013-8-11,71.2,64.1,54.4,64.0,59.6,52.8,96,86,72,30.04,29.93,10,1,11,0.02
2013-8-12,80.2,69.8,63.5,68.8,64.3,57.6,99,84,51,29.94,29.77,12,1,12,0.75
2013-8-13,69.8,60.5,51.9,58.2,49.5,45.9,92,69,46,30.08,29.87,15,2,15,0.00
2013-8-14,71.8,60.3,48.1,53.0,49.7,45.1,93,70,43,30.13,30.05,10,1,10,0.00
2013-8-15,78.6,66.1,55.9,57.0,51.9,47.0,87,63,36,30.06,29.99,9,2,12,0.00
2013-8-16,80.7,68.2,56.2,58.7,54.9,50.6,91,66,39,30.10,30.02,12,0,12,0.00
2013-8-17,77.9,66.6,53.5,63.5,56.6,52.4,98,73,47,30.16,30.08,13,1,13,0.00
2013-8-18,79.3,67.4,53.5,64.2,56.8,51.8,95,71,49,30.12,30.01,8,1,12,0.01
2013-8-19,81.4,71.5,59.8,64.5,60.6,55.3,86,70,50,30.01,29.92,13,2,13,0.00
2013-8-20,84.8,74.8,64.6,67.3,64.5,62.0,92,72,49,29.99,29.90,14,2,14,0.00
2013-8-21,87.5,77.9,68.2,70.5,67.4,64.0,88,71,55,29.93,29.79,19,4,19,0.00
2013-8-22,74.8,69.3,60.0,69.4,65.4,55.7,96,88,75,30.03,29.88,20,1,20,1.00
2013-8-23,79.2,67.8,56.5,64.5,58.7,54.7,98,75,46,30.09,30.02,11,0,11,0.01
2013-8-24,81.7,69.1,55.4,66.5,60.3,54.0,98,75,53,30.17,30.07,14,3,14,0.01
2013-8-25,88.8,77.2,66.9,70.9,64.7,56.9,85,67,44,30.11,29.98,21,4,21,0.00
2013-8-26,89.0,79.4,72.2,75.6,69.7,64.6,83,72,62,30.00,29.83,18,4,18,0.00
2013-8-27,93.1,83.6,74.5,75.4,72.6,70.0,87,70,52,29.84,29.67,19,3,19,0.00
2013-8-28,84.3,76.0,68.2,73.9,69.3,65.8,94,81,60,29.93,29.69,8,0,8,0.00
2013-8-29,86.0,75.4,64.0,71.1,67.5,62.9,98,78,55,29.97,29.86,12,1,12,0.00
2013-8-30,92.8,75.0,67.2,76.3,68.5,62.2,93,81,55,29.87,29.65,21,3,21,0.16
2013-8-31,78.0,69.2,62.7,67.9,64.4,60.5,96,85,69,29.76,29.69,8,0,8,0.00